DW2004 Weather Reports


Display with metric or nautical units.
time (UTC)temp
F
wind
direction
speed
MPH
gust
MPH
rain 1hr
in
rain 24hr
in
rain mn
in
humidity
%
barometer
mb
20260906234508 98 133 1.0 4.0 0.00 0.00 0.00 41 1010.9
20260906234005 99 118 1.0 4.0 0.00 0.00 0.00 41 1011.0
20260906233008 99 122 0.0 5.0 0.00 0.00 0.00 40 1011.0
20260906232505 99 105 1.0 4.0 0.00 0.00 0.00 40 1011.0
20260906232005 99 124 0.0 6.0 0.00 0.00 0.00 39 1011.0
20260906231508 100 114 0.0 4.0 0.00 0.00 0.00 38 1011.0
20260906231005 99 171 1.0 5.0 0.00 0.00 0.00 38 1011.0
20260906230506 99 102 0.0 7.0 0.00 0.00 0.00 39 1011.0
20260906230010 99 119 1.0 9.0 0.00 0.00 0.00 39 1011.1
20260906225505 100 107 1.0 9.0 0.00 0.00 0.00 39 1011.0
20260906225005 100 119 1.0 8.0 0.00 0.00 0.00 38 1010.9
20260906224507 100 95 2.0 8.0 0.00 0.00 0.00 38 1011.0
20260906224004 100 114 1.0 7.0 0.00 0.00 0.00 38 1011.0
20260906223505 100 122 1.0 7.0 0.00 0.00 0.00 38 1011.1
20260906223007 100 113 1.0 7.0 0.00 0.00 0.00 38 1011.2
20260906222503 100 146 1.0 7.0 0.00 0.00 0.00 39 1011.2
20260906222004 100 134 2.0 7.0 0.00 0.00 0.00 39 1011.2
20260906221508 100 165 1.0 7.0 0.00 0.00 0.00 38 1011.2
20260906221004 100 111 1.0 7.0 0.00 0.00 0.00 38 1011.2
20260906220505 100 116 2.0 9.0 0.00 0.00 0.00 39 1011.2
20260906215504 100 136 2.0 8.0 0.00 0.00 0.00 39 1011.3
20260906215004 100 128 2.0 9.0 0.00 0.00 0.00 39 1011.2
20260906214507 100 105 2.0 9.0 0.00 0.00 0.00 39 1011.3
20260906213504 100 104 2.0 7.0 0.00 0.00 0.00 39 1011.4
20260906213007 100 91 1.0 8.0 0.00 0.00 0.00 40 1011.5
20260906212504 100 102 2.0 10.0 0.00 0.00 0.00 40 1011.7
20260906211004 100 137 2.0 8.0 0.00 0.00 0.00 40 1011.8
20260906210009 100 181 2.0 10.0 0.00 0.00 0.00 40 1012.0
20260906205504 101 126 1.0 9.0 0.00 0.00 0.00 40 1012.1
20260906205004 100 145 2.0 9.0 0.00 0.00 0.00 40 1012.2
20260906204509 100 208 2.0 10.0 0.00 0.00 0.00 39 1012.3
20260906204005 100 136 3.0 11.0 0.00 0.00 0.00 41 1012.3
20260906203504 100 96 1.0 9.0 0.00 0.00 0.00 40 1012.4
20260906203008 101 123 1.0 8.0 0.00 0.00 0.00 39 1012.4
20260906202504 100 178 1.0 8.0 0.00 0.00 0.00 40 1012.5
20260906202005 100 194 1.0 10.0 0.00 0.00 0.00 40 1012.5
20260906201507 100 136 3.0 10.0 0.00 0.00 0.00 39 1012.5
20260906201005 100 148 2.0 8.0 0.00 0.00 0.00 39 1012.6
20260906200504 101 139 0.0 6.0 0.00 0.00 0.00 40 1012.7
20260906200008 101 121 1.0 8.0 0.00 0.00 0.00 39 1012.7
20260906195503 100 146 1.0 8.0 0.00 0.00 0.00 40 1012.6
20260906195003 100 196 2.0 8.0 0.00 0.00 0.00 40 1012.7
20260906194506 99 74 3.0 8.0 0.00 0.00 0.00 40 1012.9
20260906194003 100 141 1.0 10.0 0.00 0.00 0.00 40 1013.0
20260906193006 99 113 3.0 11.0 0.00 0.00 0.00 40 1013.1
20260906192503 99 126 2.0 8.0 0.00 0.00 0.00 40 1013.1
20260906192003 99 172 2.0 12.0 0.00 0.00 0.00 40 1013.2
20260906191506 99 146 1.0 8.0 0.00 0.00 0.00 40 1013.3
20260906191004 99 115 2.0 11.0 0.00 0.00 0.00 40 1013.3
20260906190502 99 96 2.0 11.0 0.00 0.00 0.00 39 1013.3
20260906185502 99 113 2.0 10.0 0.00 0.00 0.00 41 1013.4
20260906184003 98 117 1.0 8.0 0.00 0.00 0.00 43 1013.5
20260906183503 98 170 2.0 8.0 0.00 0.00 0.00 43 1013.6
20260906183006 98 114 1.0 4.0 0.00 0.00 0.00 44 1013.7
20260906182004 98 175 1.0 10.0 0.00 0.00 0.00 44 1013.9
20260906181507 98 106 1.0 10.0 0.00 0.00 0.00 45 1013.9
20260906181004 97 106 1.0 9.0 0.00 0.00 0.00 45 1014.0
20260906180503 98 107 2.0 9.0 0.00 0.00 0.00 45 1014.0
20260906180009 97 122 1.0 9.0 0.00 0.00 0.00 45 1014.0
20260906175504 97 162 2.0 11.0 0.00 0.00 0.00 45 1014.2
20260906175003 96 161 3.0 11.0 0.00 0.00 0.00 46 1014.3
20260906174003 96 63 1.0 11.0 0.00 0.00 0.00 48 1014.4
20260906173503 96 124 2.0 11.0 0.00 0.00 0.00 48 1014.6
20260906173007 96 146 1.0 6.0 0.00 0.00 0.00 48 1014.6
20260906172503 96 155 1.0 7.0 0.00 0.00 0.00 48 1014.6
20260906172003 96 98 2.0 9.0 0.00 0.00 0.00 49 1014.6
20260906171506 95 97 1.0 9.0 0.00 0.00 0.00 49 1014.7
20260906170008 95 225 1.0 7.0 0.00 0.00 0.00 49 1014.8
20260906165003 95 195 1.0 7.0 0.00 0.00 0.00 50 1014.9
20260906164506 95 110 1.0 7.0 0.00 0.00 0.00 50 1014.9
20260906164003 95 163 1.0 5.0 0.00 0.00 0.00 51 1015.0
20260906163006 94 179 0.0 5.0 0.00 0.00 0.00 53 1015.0
20260906162503 95 180 1.0 5.0 0.00 0.00 0.00 53 1015.0
20260906162002 94 192 1.0 5.0 0.00 0.00 0.00 54 1014.8
20260906161506 93 206 1.0 7.0 0.00 0.00 0.00 55 1014.9
20260906161003 93 200 2.0 7.0 0.00 0.00 0.00 55 1015.0
20260906160503 93 202 1.0 6.0 0.00 0.00 0.00 56 1014.9
20260906160008 93 175 0.0 5.0 0.00 0.00 0.00 55 1014.9
20260906155503 93 191 1.0 5.0 0.00 0.00 0.00 56 1014.9
20260906155003 93 259 0.0 4.0 0.00 0.00 0.00 56 1014.8
20260906154507 93 71 0.0 3.0 0.00 0.00 0.00 58 1014.8
20260906154003 92 71 0.0 3.0 0.00 0.00 0.00 59 1014.8
20260906153503 92 96 0.0 3.0 0.00 0.00 0.00 60 1014.8
20260906153006 92 80 0.0 3.0 0.00 0.00 0.00 59 1014.8
20260906152502 92 80 0.0 3.0 0.00 0.00 0.00 61 1014.7
20260906152003 91 82 0.0 3.0 0.00 0.00 0.00 60 1014.5
20260906151002 91 90 0.0 3.0 0.00 0.00 0.00 61 1014.4
20260906150503 91 90 0.0 3.0 0.00 0.00 0.00 62 1014.3
20260906145502 89 83 0.0 4.0 0.00 0.00 0.00 63 1014.4
20260906145003 89 65 1.0 4.0 0.00 0.00 0.00 63 1014.4
20260906143503 88 137 0.0 4.0 0.00 0.00 0.00 67 1014.3
20260906142502 88 137 0.0 1.0 0.00 0.00 0.00 68 1014.4
20260906142002 88 137 0.0 0.0 0.00 0.00 0.00 67 1014.5
20260906141506 88 137 0.0 0.0 0.00 0.00 0.00 68 1014.6
20260906140503 87 138 0.0 1.0 0.00 0.00 0.00 69 1014.6
20260906140007 87 137 0.0 2.0 0.00 0.00 0.00 69 1014.6
20260906135502 87 138 0.0 0.0 0.00 0.00 0.00 71 1014.6
20260906135001 86 138 0.0 0.0 0.00 0.00 0.00 71 1014.6
20260906134505 87 137 0.0 0.0 0.00 0.00 0.00 71 1014.5
20260906134001 87 137 0.0 0.0 0.00 0.00 0.00 71 1014.5
20260906133502 86 138 0.0 0.0 0.00 0.00 0.00 73 1014.5
20260906133005 85 138 0.0 0.0 0.00 0.00 0.00 74 1014.6
20260906132001 84 138 0.0 0.0 0.00 0.00 0.00 76 1014.6
20260906131505 83 138 0.0 0.0 0.00 0.00 0.00 77 1014.5
20260906131001 83 137 0.0 0.0 0.00 0.00 0.00 77 1014.5
20260906130502 82 137 0.0 0.0 0.00 0.00 0.00 78 1014.4
20260906130007 81 138 0.0 0.0 0.00 0.00 0.00 81 1014.4
20260906125501 80 138 0.0 0.0 0.00 0.00 0.00 82 1014.3
20260906125002 79 137 0.0 0.0 0.00 0.00 0.00 83 1014.2
20260906124504 79 138 0.0 0.0 0.00 0.00 0.00 83 1014.2
20260906123502 78 138 0.0 0.0 0.00 0.00 0.00 83 1014.3
20260906123005 78 137 0.0 0.0 0.00 0.00 0.00 84 1014.2
20260906122502 78 137 0.0 0.0 0.00 0.00 0.00 83 1014.1
20260906122002 78 137 0.0 0.0 0.00 0.00 0.00 83 1014.1
20260906121505 78 137 0.0 0.0 0.00 0.00 0.00 82 1014.0
20260906121002 78 137 0.0 0.0 0.00 0.00 0.00 82 1014.0
20260906120501 78 137 0.0 0.0 0.00 0.00 0.00 82 1013.9
20260906120007 79 137 0.0 0.0 0.00 0.00 0.00 82 1013.9
20260906115502 79 137 0.0 0.0 0.00 0.00 0.00 82 1013.9
20260906114002 79 137 0.0 0.0 0.00 0.00 0.00 82 1013.8
20260906113501 79 137 0.0 0.0 0.00 0.00 0.00 82 1013.8
20260906113006 79 137 0.0 0.0 0.00 0.00 0.00 82 1013.8
20260906112502 79 137 0.0 0.0 0.00 0.00 0.00 81 1013.7
20260906112001 79 137 0.0 0.0 0.00 0.00 0.00 81 1013.7
20260906111505 79 137 0.0 0.0 0.00 0.00 0.00 81 1013.6
20260906111001 79 137 0.0 0.0 0.00 0.00 0.00 82 1013.6
20260906110501 79 137 0.0 0.0 0.00 0.00 0.00 82 1013.5
20260906104504 79 137 0.0 0.0 0.00 0.00 0.00 81 1013.3
20260906104001 79 137 0.0 0.0 0.00 0.00 0.00 81 1013.3
20260906103501 79 137 0.0 0.0 0.00 0.00 0.00 81 1013.3
20260906103004 79 137 0.0 0.0 0.00 0.00 0.00 80 1013.3
20260906102501 79 137 0.0 0.0 0.00 0.00 0.00 80 1013.3
20260906102000 79 137 0.0 0.0 0.00 0.00 0.00 80 1013.3
20260906101504 79 137 0.0 0.0 0.00 0.00 0.00 80 1013.2
20260906101001 79 137 0.0 0.0 0.00 0.00 0.00 80 1013.2
20260906100500 79 137 0.0 0.0 0.00 0.00 0.00 79 1013.2
20260906095501 80 137 0.0 0.0 0.00 0.00 0.00 78 1013.2
20260906095001 80 137 0.0 0.0 0.00 0.00 0.00 78 1013.2
20260906094504 80 137 0.0 0.0 0.00 0.00 0.00 78 1013.1
20260906094001 80 137 0.0 0.0 0.00 0.00 0.00 77 1013.0
20260906093500 81 138 0.0 0.0 0.00 0.00 0.00 77 1013.0
20260906092501 81 137 0.0 0.0 0.00 0.00 0.00 76 1012.9
20260906092001 81 137 0.0 0.0 0.00 0.00 0.00 76 1012.8
20260906091504 81 137 0.0 0.0 0.00 0.00 0.00 76 1012.7
20260906091001 81 137 0.0 0.0 0.00 0.00 0.00 76 1012.7
20260906090501 81 137 0.0 0.0 0.00 0.00 0.00 76 1012.7
20260906090006 81 137 0.0 0.0 0.00 0.00 0.00 76 1012.7
20260906085500 81 137 0.0 0.0 0.00 0.00 0.00 76 1012.6
20260906085002 81 137 0.0 0.0 0.00 0.00 0.00 75 1012.7
20260906084504 81 137 0.0 0.0 0.00 0.00 0.00 75 1012.7
20260906084001 81 137 0.0 0.0 0.00 0.00 0.00 75 1012.7
20260906083501 82 137 0.0 0.0 0.00 0.00 0.00 74 1012.6
20260906083004 82 137 0.0 0.0 0.00 0.00 0.00 74 1012.6
20260906082501 82 137 0.0 0.0 0.00 0.00 0.00 73 1012.6
20260906082000 82 137 0.0 0.0 0.00 0.00 0.00 72 1012.6
20260906081506 82 137 0.0 0.0 0.00 0.00 0.00 72 1012.5
20260906081001 82 137 0.0 0.0 0.00 0.00 0.00 73 1012.4
20260906080500 82 137 0.0 0.0 0.00 0.00 0.00 73 1012.3
20260906080006 82 137 0.0 0.0 0.00 0.00 0.00 73 1012.3
20260906074504 82 137 0.0 0.0 0.00 0.00 0.00 72 1012.5
20260906074000 82 137 0.0 0.0 0.00 0.00 0.00 72 1012.6
20260906073500 82 137 0.0 0.0 0.00 0.00 0.00 72 1012.6
20260906073005 82 137 0.0 0.0 0.00 0.00 0.00 71 1012.7
20260906072500 82 137 0.0 0.0 0.00 0.00 0.00 71 1012.7
20260906072000 82 137 0.0 0.0 0.00 0.00 0.00 71 1012.8
20260906071505 83 137 0.0 0.0 0.00 0.00 0.00 71 1012.9
20260906071000 83 137 0.0 0.0 0.00 0.00 0.00 70 1013.0
20260906070500 83 137 0.0 0.0 0.00 0.00 0.00 70 1013.0
20260906070007 83 137 0.0 0.0 0.00 0.00 0.00 69 1013.0
20260906065000 83 137 0.0 1.0 0.00 0.00 0.00 69 1012.9
20260906064504 83 137 0.0 1.0 0.00 0.00 0.00 70 1013.0
20260906063004 83 137 0.0 0.0 0.00 0.00 0.00 69 1013.0
20260906062501 83 137 0.0 0.0 0.00 0.00 0.00 69 1012.9
20260906062000 83 137 0.0 0.0 0.00 0.00 0.00 69 1012.9
20260906061503 83 137 0.0 0.0 0.00 0.00 0.00 69 1012.8
20260906061001 83 137 0.0 0.0 0.00 0.00 0.00 69 1012.8
20260906060501 83 137 0.0 0.0 0.00 0.00 0.00 69 1012.8
20260906060010 83 137 0.0 0.0 0.00 0.00 0.00 69 1012.8
20260906055006 84 137 0.0 0.0 0.00 0.00 0.00 68 1012.9
20260906054509 84 137 0.0 0.0 0.00 0.00 0.00 68 1013.0
20260906053506 84 137 0.0 0.0 0.00 0.00 0.00 67 1013.0
20260906053008 84 137 0.0 0.0 0.00 0.00 0.00 66 1013.0
20260906052505 85 137 0.0 0.0 0.00 0.00 0.00 66 1013.2
20260906052005 85 137 0.0 1.0 0.00 0.00 0.00 66 1013.2
20260906051005 86 137 0.0 1.0 0.00 0.00 0.00 64 1013.2
20260906050015 86 137 0.0 2.0 0.00 0.00 0.00 64 1013.1
20260906045505 86 137 0.0 2.0 0.00 0.00 0.00 63 1013.0
20260906045006 86 138 0.0 2.0 0.00 0.00 0.00 63 1013.0
20260906044509 86 137 0.0 0.0 0.00 0.00 0.00 63 1013.0
20260906044005 86 137 0.0 0.0 0.00 0.00 0.00 62 1012.9
20260906043505 86 137 0.0 0.0 0.00 0.00 0.00 62 1012.9
20260906043009 86 137 0.0 0.0 0.00 0.00 0.00 62 1013.0
20260906042506 87 138 0.0 0.0 0.00 0.00 0.00 61 1012.9
20260906042005 87 137 0.0 0.0 0.00 0.00 0.00 61 1012.9
20260906040505 87 138 0.0 1.0 0.00 0.00 0.00 60 1012.7
20260906040011 87 138 0.0 1.0 0.00 0.00 0.00 60 1012.7
20260906035506 87 137 0.0 1.0 0.00 0.00 0.00 59 1012.7
20260906035005 88 138 0.0 1.0 0.00 0.00 0.00 59 1012.8
20260906034509 88 138 0.0 0.0 0.00 0.00 0.00 59 1012.8
20260906034006 88 137 0.0 1.0 0.00 0.00 0.00 59 1012.8
20260906033505 88 138 0.0 3.0 0.00 0.00 0.00 58 1012.8
20260906033009 88 138 0.0 4.0 0.00 0.00 0.00 58 1012.8
20260906032005 89 137 0.0 3.0 0.00 0.00 0.00 57 1012.9
20260906031509 89 137 0.0 3.0 0.00 0.00 0.00 57 1012.9
20260906031005 89 137 0.0 3.0 0.00 0.00 0.00 57 1012.8
20260906030505 89 137 0.0 3.0 0.00 0.00 0.00 56 1012.8
20260906025505 89 137 1.0 5.0 0.00 0.00 0.00 56 1012.8
20260906025005 90 216 1.0 6.0 0.00 0.00 0.00 55 1012.7
20260906024508 90 121 1.0 6.0 0.00 0.00 0.00 55 1012.7
20260906023506 90 112 1.0 6.0 0.00 0.00 0.00 55 1012.4
20260906023009 90 126 1.0 7.0 0.00 0.00 0.00 54 1012.4
20260906022505 91 125 1.0 10.0 0.00 0.00 0.00 53 1012.2
20260906022005 91 129 1.0 10.0 0.00 0.00 0.00 53 1012.1
20260906021509 92 121 0.0 3.0 0.00 0.00 0.00 53 1012.1
20260906021006 92 117 0.0 7.0 0.00 0.00 0.00 52 1012.1
20260906020505 92 105 0.0 7.0 0.00 0.00 0.00 51 1012.0
20260906015005 93 113 0.0 9.0 0.00 0.00 0.00 51 1011.7
20260906014509 93 140 2.0 9.0 0.00 0.00 0.00 52 1011.6
20260906013506 93 150 0.0 1.0 0.00 0.00 0.00 52 1011.4
20260906013009 93 149 0.0 1.0 0.00 0.00 0.00 52 1011.3
20260906012506 93 150 0.0 1.0 0.00 0.00 0.00 52 1011.3
20260906012005 93 150 0.0 2.0 0.00 0.00 0.00 52 1011.3
20260906011509 93 150 0.0 2.0 0.00 0.00 0.00 51 1011.2
20260906011006 94 188 0.0 0.0 0.00 0.00 0.00 50 1011.1
20260906010011 94 188 0.0 1.0 0.00 0.00 0.00 46 1011.1
20260906005504 95 188 0.0 0.0 0.00 0.00 0.00 45 1011.0
20260906005004 95 188 0.0 0.0 0.00 0.00 0.00 42 1011.0
20260906004508 96 188 0.0 1.0 0.00 0.00 0.00 42 1011.0
20260906004004 96 188 0.0 1.0 0.00 0.00 0.00 41 1011.0
20260906003007 97 188 0.0 0.0 0.00 0.00 0.00 41 1011.0
20260906002504 97 188 0.0 0.0 0.00 0.00 0.00 40 1011.0
20260906002004 97 188 0.0 0.0 0.00 0.00 0.00 39 1011.0
20260906001507 98 188 0.0 0.0 0.00 0.00 0.00 39 1011.0
20260906001004 98 188 0.0 0.0 0.00 0.00 0.00 39 1010.9
20260906000504 98 188 0.0 0.0 0.00 0.00 0.00 38 1011.0
20260905235504 99 188 0.0 3.0 0.00 0.00 0.00 39 1010.9
20260905235005 99 188 0.0 3.0 0.00 0.00 0.00 39 1010.8